sat.trackr.live / text

‹ back to catalog

HULIANWANG DIGUI-48

NORAD 65051 · 2025-162J

PAYLOAD ACTIVE UNKNOWN

§ Identity

Operator
Country
PRC
Launch date
2025-07-30
Launch site
WSC
Launch vehicle
Mass (kg)
RCS (m²)

External: N2YO · Heavens-Above · Gunter

§ Orbital elements

Epoch: 2026-09-21T18:43:10.306560Z

Period
108.33 min
Inclination
50.0032°
Eccentricity
0.0000728
Mean motion
13.29326585 rev/d
Perigee alt
1,148.8 km
Apogee alt
1,149.9 km
Semi-major
7,527.4 km
B*
8.7746e-5
RAAN
279.0279°
Arg perigee
288.6239°
Mean anomaly
71.4554°
Rev number
5,621

§ Raw data

HULIANWANG DIGUI-481 65051U 25162J   26264.77998040 -.00000083  00000+0  87746-4 0  99942 65051  50.0032 279.0279 0000728 288.6239  71.4554 13.29326585 56214

JSON: /api/v1/satellites/65051 · /tle

For live sub-satellite position, see the globe view (requires WebGL).

§ Visibility from observer

Set your observer location to see the next 7 days of passes ≥ 10°. The values pass through the URL so the page stays shareable.

No JS? Fill the form by hand. The geolocation button needs JavaScript.